EST,Max TemperatureF,Mean TemperatureF,Min TemperatureF,Max Dew PointF,MeanDew PointF,Min DewpointF,Max Humidity, Mean Humidity, Min Humidity, Max Sea Level PressureIn, Mean Sea Level PressureIn, Min Sea Level PressureIn, Max VisibilityMiles, Mean VisibilityMiles, Min VisibilityMiles, Max Wind SpeedMPH, Mean Wind SpeedMPH, Max Gust SpeedMPH,PrecipitationIn, CloudCover, Events, WindDirDegrees
2012-11-1,53,45,37,48,44,36,100,81,67,29.56,29.52,29.48,10,10,10,13,6,,0.00,4,,211
2012-11-2,53,45,37,45,42,36,100,85,62,29.53,29.50,29.47,10,10,4,10,2,,0.00,5,,253
2012-11-3,51,45,39,43,37,34,87,71,58,29.68,29.61,29.53,10,10,10,13,5,20,0.00,6,,304
2012-11-4,50,44,37,37,33,27,81,64,47,29.90,29.78,29.68,10,10,10,15,7,21,0.00,3,,310
2012-11-5,39,32,26,27,21,14,80,58,44,30.07,29.98,29.91,10,10,10,9,4,17,0.00,5,,314
2012-11-6,39,30,21,23,18,12,100,65,33,30.25,30.18,30.07,10,10,7,14,4,17,0.00,0,,295
2012-11-7,37,34,30,32,22,18,93,60,45,30.25,30.08,29.87,10,9,1,25,12,36,0.03,2,,36
2012-11-8,39,36,33,37,36,34,100,93,87,29.86,29.72,29.66,10,9,2,28,19,40,0.46,8,,17
2012-11-9,48,39,30,36,32,25,93,73,49,30.03,29.83,29.68,10,10,10,14,9,24,0.00,3,,327
2012-11-10,48,37,26,32,23,14,100,63,27,30.47,30.24,30.01,10,10,10,14,4,22,0.00,0,,310
2012-11-11,51,38,24,50,39,21,100,82,58,30.51,30.46,30.41,10,10,7,15,4,21,0.00,4,,205
2012-11-12,59,52,46,55,51,46,100,90,67,30.44,30.38,30.27,10,9,5,14,8,22,0.00,1,,207
2012-11-13,57,49,39,55,46,25,100,85,56,30.41,30.23,30.12,10,10,3,16,10,25,0.11,8,,262
2012-11-14,44,40,35,28,26,23,75,61,46,30.52,30.48,30.41,10,10,10,13,8,21,0.00,1,,8
2012-11-15,37,35,33,30,29,27,87,76,65,30.48,30.39,30.30,10,10,10,16,9,23,0.00,5,,16
2012-11-16,41,36,30,30,28,27,87,74,61,30.40,30.31,30.26,10,10,10,8,4,,0.00,1,,343
2012-11-17,42,33,24,30,24,18,87,67,39,30.67,30.57,30.41,10,10,10,10,4,18,0.00,0,,6
2012-11-18,42,32,21,27,21,16,100,70,34,30.74,30.69,30.65,10,10,10,10,3,,0.00,0,,356
2012-11-19,44,32,21,36,28,19,100,84,61,30.64,30.45,30.27,10,10,5,8,3,,0.00,1,,326
2012-11-20,46,34,23,36,27,19,100,74,46,30.26,30.19,30.14,10,10,3,14,3,20,0.00,0,,6
2012-11-21,46,37,28,41,35,27,100,89,70,30.27,30.24,30.18,10,8,1,12,7,16,0.00,1,,28
2012-11-22,50,38,26,43,34,21,100,91,71,30.27,30.21,30.11,10,8,0,9,2,,0.00,0,,221
2012-11-23,50,39,28,46,40,28,100,90,76,30.10,29.90,29.64,10,8,0,13,5,18,0.00,6,,208
2012-11-24,48,39,30,46,35,16,93,75,45,29.63,29.48,29.40,10,10,10,20,8,33,0.00,6,,264
2012-11-25,35,32,28,19,12,7,64,46,32,29.74,29.59,29.47,10,10,10,29,16,34,0.00,1,,274
2012-11-26,39,32,23,23,16,10,63,52,45,30.23,29.95,29.74,10,10,10,21,11,32,0.00,0,,274
2012-11-27,35,26,17,27,20,12,93,70,55,30.33,30.29,30.23,10,10,10,10,4,,0.00,3,,26
2012-11-28,33,27,21,27,22,18,100,73,52,30.25,30.16,30.09,10,9,2,15,8,22,0.00,6,,359
2012-11-29,39,28,17,28,18,12,100,63,36,30.16,30.09,30.04,10,10,4,22,8,31,0.00,2,,273
2012-11-30,30,22,15,18,4,0,63,46,31,30.59,30.45,30.17,10,10,10,12,6,18,0.00,1,,324